Vertical_Velocity
1 1 -15 -6 -3 -5 2 6 10 21 31 4 -15 -13 -10 -19 13 8 -7 -0 -6 -3 -2 -0 0 2 0 -1 -1 -0 -4 -2 1 0 -0 -2 -3 -2 1 -3 6 -1 -1 1
11 -15 -4 1 4 7 -6 0 -7 -12 -14 21 7 -4 -9 -9 8 2 3 -3 2 1 -2 -2 -3 -2 0 1 -3 -4 -3 -3 -2 -3 -1 -1 -1 -2 -1 -3 0 4 -2 5
-6 -15 -1 -3 5 -3 -4 -2 -2 3 1 8 -12 -12 -19 -13 30 -14 -6 2 -6 -0 3 -1 -4 -1 -2 -1 0 0 -3 -1 -2 -2 0 -1 -0 -6 3 -4 -0 -2 1 0
-3 -7 8 6 -2 13 3 -3 9 2 5 -4 16 -16 15 -4 -5 -8 -1 -3 -5 -4 1 -3 -1 -2 -1 -3 -3 -2 -4 -4 -4 -3 -1 -0 -2 0 -3 4 -2 -1 -0 -2
-25 4 -0 5 -8 9 -16 33 -7 7 -2 8 -6 20 -35 7 8 -6 -5 -3 -5 -5 -4 -4 -0 0 -1 -1 -3 -2 -2 -2 -4 -2 -2 -2 -3 -3 -3 -0 -3 2 -2 0
-5 10 13 -12 -6 -0 16 4 -5 -1 1 12 -13 14 -15 5 30 1 -3 -5 -6 -4 -5 -2 -2 -2 -2 0 -1 -2 -4 -4 -5 -3 -2 -2 -0 -2 -3 -2 -3 -3 -4 -1
11 -10 15 -4 -2 9 12 -2 2 9 12 -10 -7 24 -26 15 4 4 0 -12 -7 -1 -1 -4 -2 -2 -0 -1 -0 -1 -3 -3 -2 -3 -3 -2 -5 -2 -1 -3 -2 -1 -3 -5
-2 12 1 -2 -11 -3 -13 -8 -8 -4 -0 -11 20 1 -12 -3 -5 5 -4 -5 -6 -3 -4 -3 -1 -0 0 2 -2 -2 -5 -3 -4 -4 -4 -6 -1 -6 -2 -2 -1 -2 -3 -6
12 -17 20 -5 -5 4 -11 6 -9 10 -2 7 -8 9 5 -6 5 4 7 -4 -4 -1 -2 -1 -2 -0 -1 -1 -2 -4 -4 -3 -4 -4 -4 -3 -1 -4 -4 -3 -3 -2 -2 -4
-24 6 -15 19 15 -3 23 12 13 8 2 1 -8 -5 -7 7 -4 1 -1 -3 -3 -4 -4 -4 -4 -1 -2 -3 -1 -3 -3 -4 -3 -1 -4 -3 -4 -5 -4 -3 -2 -3 -1 -2
-2 18 6 28 -5 -9 -4 -2 10 4 -2 1 0 -5 -2 3 1 2 -1 -5 -3 -0 -2 -2 -3 -2 -1 0 0 -3 -3 -1 -4 -5 -3 -3 -3 -5 -4 -2 -2 -2 -1 -2
-8 5 2 -16 -9 -13 20 -11 8 7 -8 -2 5 -37 -11 -9 -5 1 0 -7 -2 -1 -3 -1 -3 -3 4 -1 -1 -2 0 -1 -0 -4 -4 -4 -3 -2 -6 -2 -3 -2 -1 -0
4 -11 6 14 27 16 -10 -10 16 -4 15 -16 13 -47 -9 17 19 4 21 7 -7 4 -4 -0 -4 -1 1 2 -2 -2 -0 -3 -1 -2 -4 -5 -3 -2 -5 -2 -1 -0 -1 1
11 8 -6 -10 -18 6 11 -1 1 20 13 -16 -19 -12 4 39 -20 -33 13 8 -10 -2 -1 -2 -4 -4 3 2 1 -1 2 -3 -1 -3 -4 -4 -2 -1 -4 -1 -1 -1 -0 -1
8 -1 9 -7 -5 21 -5 -2 -13 2 -8 18 -13 -6 9 2 27 -7 -3 -1 -11 -1 2 0 -4 -8 8 -1 -2 -2 3 -2 -0 -3 -3 -3 -1 -1 -2 -2 -1 1 -2 -1
6 -9 -0 -11 4 -3 7 -15 -1 1 -10 -7 -20 -15 5 -1 6 -4 8 5 0 -2 8 1 -7 -7 10 -0 2 -0 -0 -1 -0 -3 -4 -3 -1 0 -1 -1 -0 0 -2 -1
4 -3 1 -22 7 4 5 -28 1 1 5 8 13 -7 17 8 6 21 16 -8 -2 -0 -2 3 -7 -1 3 -1 1 2 -1 -0 -2 -4 -2 -2 -1 -0 -1 -1 0 1 -0 0
-6 -1 12 -21 6 14 -67 1 -2 1 -11 -12 -0 -12 -4 9 11 30 9 -17 -14 4 7 -2 -3 3 -3 4 5 -1 1 -2 -1 -3 -1 -2 -1 -1 -1 -1 1 1 1 1
-5 2 -3 10 2 -8 -18 3 9 30 1 -5 10 -2 -9 -2 35 -39 15 -5 5 -0 2 -0 5 -1 -0 2 2 1 1 -2 -1 -1 -2 -1 -1 -1 -1 -0 -1 0 -0 -1
6 2 15 19 2 -1 -23 1 11 25 -40 28 -19 -10 -8 -3 -3 24 -0 8 2 6 1 5 2 -1 7 6 3 2 0 -2 -1 -2 -1 -1 -2 -1 -1 1 1 0 -0 -1
3 8 -5 -1 1 -17 -12 -7 -6 36 -52 2 -2 -1 -3 -2 -4 -2 -1 5 1 -0 -1 1 -1 1 2 3 -2 -0 0 -1 -0 -1 -1 -1 -2 1 0 -0 -0 0 0 -1
3 5 -1 5 8 -10 11 -4 18 9 13 2 -4 -11 2 5 2 -2 -1 -1 1 3 -1 2 1 1 2 -1 -1 1 0 1 0 -1 -0 -0 -0 1 -1 0 -0 1 1 -1
-10 9 -3 -4 -6 0 -14 -13 -3 -15 -10 -5 -2 -10 -4 -1 -3 -1 1 -2 0 1 -0 0 -1 0 1 -1 -0 0 1 0 -1 -0 0 -0 -0 2 -0 1 0 -0 -0 -0
-16 10 -3 37 3 -9 7 6 0 -3 4 -3 -1 -4 -1 -2 -1 -0 -1 -2 0 1 0 -1 -2 2 0 0 0 -0 -0 -0 -0 1 0 -0 1 0 -0 1 -1 -1 -1 -1
12 35 -7 -6 -7 -7 19 6 10 -6 -1 -1 -4 -1 1 -0 -5 -1 0 1 2 -0 1 -4 0 1 0 1 0 -0 -1 -1 1 0 -0 -0 1 -1 -0 0 -0 -0 -0 -1
9 -21 9 -11 20 -5 -1 3 3 18 -2 1 -8 6 -2 -2 -1 2 1 1 -1 1 -0 -3 2 2 1 -1 1 0 -1 -0 -0 -1 0 0 -1 2 -2 -2 -0 0 -0 -1
Height
3097 3099 3098 3102 3104 3106 3105 3105 3106 3107 3109 3108 3108 3111 3113 3114 3115 3109 3109 3108 3102 3099 3098 3098 3098 3098 3097 3097 3095 3094 3094 3093 3092 3090 3089 3087 3086 3085 3084 3083 3083 3082 3082 3083
3095 3089 3093 3099 3103 3102 3101 3102 3103 3105 3105 3106 3104 3104 3106 3107 3108 3104 3106 3102 3099 3095 3092 3093 3093 3092 3092 3091 3089 3089 3088 3087 3086 3084 3082 3081 3080 3077 3077 3075 3074 3075 3075 3075
3084 3087 3090 3093 3096 3098 3098 3097 3099 3101 3102 3099 3100 3098 3099 3098 3100 3096 3100 3098 3095 3094 3091 3088 3088 3088 3086 3086 3084 3082 3081 3081 3079 3077 3076 3074 3073 3070 3071 3068 3067 3067 3067 3067
3081 3084 3086 3089 3090 3094 3093 3095 3095 3095 3098 3095 3098 3089 3090 3088 3088 3088 3091 3090 3089 3090 3090 3087 3085 3083 3081 3080 3080 3078 3076 3076 3075 3073 3070 3068 3066 3064 3062 3061 3061 3059 3058 3058
3070 3076 3080 3082 3085 3089 3089 3091 3089 3090 3092 3092 3091 3090 3084 3084 3078 3079 3083 3085 3084 3084 3084 3083 3082 3080 3079 3077 3076 3075 3073 3072 3071 3070 3067 3064 3062 3060 3057 3056 3054 3053 3051 3050
3068 3073 3074 3075 3079 3083 3087 3084 3087 3088 3089 3082 3086 3088 3074 3073 3071 3072 3077 3079 3082 3082 3081 3080 3079 3078 3076 3076 3074 3072 3070 3069 3068 3066 3063 3061 3058 3056 3053 3051 3048 3047 3045 3043
3063 3063 3066 3070 3073 3077 3079 3082 3083 3083 3080 3070 3074 3074 3070 3069 3067 3069 3071 3073 3075 3077 3076 3076 3075 3075 3073 3073 3071 3069 3068 3066 3064 3062 3060 3056 3053 3051 3048 3045 3043 3041 3039 3036
3055 3055 3057 3061 3064 3069 3071 3073 3069 3071 3068 3064 3065 3061 3064 3066 3065 3067 3067 3069 3071 3072 3072 3071 3071 3071 3070 3070 3068 3066 3065 3063 3061 3058 3055 3052 3049 3045 3043 3040 3037 3034 3033 3031
3046 3043 3052 3052 3057 3064 3063 3063 3069 3066 3065 3066 3063 3062 3061 3061 3060 3062 3063 3063 3066 3067 3067 3067 3067 3067 3066 3065 3064 3062 3061 3059 3057 3054 3051 3047 3044 3041 3038 3035 3032 3029 3027 3024
3041 3043 3043 3046 3051 3053 3055 3061 3063 3064 3062 3063 3055 3056 3055 3053 3053 3055 3058 3059 3062 3062 3062 3063 3061 3061 3061 3060 3059 3058 3057 3055 3053 3050 3047 3044 3040 3037 3034 3031 3027 3024 3021 3019
3036 3039 3038 3040 3038 3044 3050 3051 3053 3058 3056 3054 3054 3052 3049 3050 3050 3051 3053 3055 3057 3057 3057 3057 3055 3055 3056 3056 3055 3054 3052 3050 3048 3045 3042 3039 3036 3033 3030 3026 3023 3020 3017 3015
3027 3030 3030 3032 3038 3041 3043 3045 3048 3050 3051 3051 3051 3045 3048 3047 3048 3048 3048 3048 3049 3051 3051 3051 3050 3050 3050 3051 3050 3050 3049 3047 3043 3040 3038 3034 3031 3029 3027 3024 3021 3018 3015 3013
3019 3020 3024 3028 3034 3034 3035 3038 3041 3044 3046 3044 3045 3033 3048 3047 3046 3046 3046 3043 3041 3046 3046 3047 3045 3043 3043 3045 3044 3044 3043 3041 3039 3035 3033 3031 3027 3026 3023 3021 3019 3016 3014 3012
3011 3013 3017 3017 3023 3028 3029 3031 3034 3037 3038 3033 3034 3036 3041 3041 3039 3039 3040 3038 3037 3041 3039 3040 3039 3036 3036 3039 3039 3039 3038 3036 3034 3031 3029 3026 3024 3022 3019 3017 3016 3014 3012 3010
3011 3010 3015 3017 3019 3021 3020 3023 3025 3027 3030 3028 3025 3033 3032 3035 3031 3032 3033 3032 3030 3032 3033 3033 3031 3029 3031 3032 3033 3033 3033 3031 3030 3026 3024 3022 3020 3018 3016 3014 3013 3011 3010 3010
3008 3007 3010 3012 3012 3016 3015 3018 3018 3022 3020 3020 3022 3023 3026 3028 3027 3026 3026 3026 3024 3024 3027 3025 3024 3024 3026 3027 3026 3027 3027 3026 3025 3022 3020 3018 3017 3015 3014 3012 3011 3010 3010 3008
3006 3007 3009 3007 3010 3010 3011 3005 3015 3014 3015 3015 3017 3018 3020 3021 3021 3019 3015 3017 3016 3017 3019 3018 3017 3019 3021 3020 3020 3020 3022 3021 3020 3018 3016 3015 3014 3013 3012 3011 3010 3009 3008 3006
3004 3005 3006 3002 3005 3001 2997 3003 3004 3005 3006 3007 3010 3011 3013 3012 3014 3010 3006 3005 3008 3010 3010 3011 3012 3013 3014 3015 3014 3015 3016 3016 3015 3014 3013 3012 3012 3011 3011 3010 3009 3007 3006 3004
3000 3001 3003 2999 2995 2993 2994 2996 2999 3000 2998 2999 3001 3001 3003 3004 3006 3004 3004 3000 3003 3005 3005 3006 3007 3006 3008 3009 3010 3011 3011 3011 3011 3011 3011 3011 3010 3010 3009 3008 3007 3006 3004 3002
2989 2993 2997 2992 2988 2989 2985 2990 2996 2993 2989 2994 2995 2995 2996 2997 2997 2996 2995 2996 2999 2999 3000 3000 3000 3000 3002 3003 3004 3005 3007 3008 3007 3008 3009 3009 3009 3008 3007 3006 3005 3004 3002 3001
2984 2987 2986 2985 2986 2984 2978 2985 2989 2990 2987 2986 2988 2989 2989 2989 2990 2989 2992 2993 2992 2993 2992 2993 2994 2995 2998 2999 3001 3002 3003 3004 3004 3005 3006 3007 3007 3006 3005 3004 3004 3002 3001 2999
2982 2979 2980 2981 2983 2981 2976 2977 2982 2981 2982 2980 2980 2981 2982 2984 2985 2985 2985 2985 2985 2986 2986 2987 2989 2990 2993 2995 2996 2998 2999 3001 3002 3003 3004 3004 3005 3004 3004 3003 3002 3001 2999 2997
2977 2977 2978 2976 2973 2971 2972 2973 2975 2975 2976 2974 2975 2975 2977 2978 2979 2979 2979 2979 2979 2979 2980 2982 2984 2986 2988 2990 2992 2994 2996 2998 3000 3001 3002 3002 3003 3003 3002 3001 3001 2999 2997 2995
2970 2971 2970 2971 2965 2969 2969 2968 2969 2969 2969 2969 2970 2970 2972 2973 2974 2973 2973 2974 2974 2974 2976 2978 2980 2981 2983 2986 2988 2990 2992 2995 2997 2998 2999 3000 3001 3001 3000 2999 2998 2997 2995 2993
2963 2960 2960 2960 2960 2962 2964 2963 2964 2962 2963 2964 2964 2964 2967 2967 2968 2968 2968 2968 2969 2969 2971 2973 2975 2977 2979 2982 2984 2987 2989 2992 2993 2995 2996 2998 2999 2998 2998 2997 2996 2994 2993 2991
2960 2958 2958 2954 2957 2954 2956 2956 2956 2956 2958 2958 2957 2959 2960 2961 2962 2962 2962 2963 2964 2965 2967 2968 2970 2973 2975 2978 2981 2983 2986 2988 2990 2992 2994 2995 2996 2996 2996 2994 2993 2992 2991 2989